Weather Service Report


067 
ASUS45 KBOI 260110
RWRID 

IDAHO REGIONAL WEATHER ROUNDUP
NATIONAL WEATHER SERVICE BOISE ID
700 PM MDT THU AUG 25 2016

NOTE: "FAIR" INDICATES FEW OR NO CLOUDS BELOW 12000 FEET
WITH NO SIGNIFICANT WEATHER AND/OR OBSTRUCTIONS TO VISIBILITY

IDZ012-014-260200-
SOUTHWEST IDAHO

  
CITY           SKY/WX    TMP DP  RH WIND       PRES   REMARKS
BOISE          SUNNY     82  33  17 NW13      29.97F                  
CALDWELL       SUNNY     82  39  21 W9        29.97F                  
MOUNTAIN HOME  SUNNY     82  27  13 VRB2      29.96F                  
$$

IDZ016-017-260200-
SOUTHCENTRAL IDAHO

  
CITY           SKY/WX    TMP DP  RH WIND       PRES   REMARKS
BURLEY         SUNNY     75  34  22 W7        29.99F                  
JEROME         SUNNY     77  28  16 SW7       30.02F                  
TWIN FALLS     SUNNY     76  26  15 NW6       30.02F                  
$$

IDZ019>023-260200-
SOUTHEAST IDAHO

  
CITY           SKY/WX    TMP DP  RH WIND       PRES   REMARKS
IDAHO FALLS    MOSUNNY   76  25  15 E5        30.05F                  
POCATELLO      SUNNY     77  27  15 NW6       30.03F                  
REXBURG        SUNNY     74  27  17 SW8       30.06S                  
$$

IDZ006-010-011-018-031-032-260200-
CENTRAL IDAHO MOUNTAINS

  
CITY           SKY/WX    TMP DP  RH WIND       PRES   REMARKS
MCCALL         PTSUNNY   73  30  20 W6        30.10F                  
HAILEY         MOSUNNY   70  39  32 SE6       30.07F                  
STANLEY          N/A     68  26  20 N8        30.14S                  
SALMON         SUNNY     72  36  26 CALM      30.01F                  
CHALLIS        MOSUNNY   70  33  25 N8        30.05S                  
$$

IDZ002-004-006-007-026-260200-
NORTHERN IDAHO

  
CITY           SKY/WX    TMP DP  RH WIND       PRES   REMARKS
LEWISTON       SUNNY     86  33  15 NW5       29.96F                  
LOWELL           N/A     74  44  34 CALM      29.95F                  
COEUR D'ALENE  SUNNY     81  34  18 NE8       30.01F                  
MULLAN PASS    MOSUNNY   60  29  30 VRB3      30.22F                  
$$
  

Return to Home page


Western Regional Climate Center, wrcc@dri.edu